| time (UTC) | temp C | wind direction | speed KPH | gust KPH | rain 1hr cm | rain 24hr cm | rain mn cm | humidity % | barometer mb |
| 20260503021907 | 7 | 300 | 0.0 | 0.0 | 0.00 | 0.00 | 0.00 | 91 | 1016.5 |
| 20260503021400 | 7 | 300 | 0.0 | 1.6 | 0.00 | 0.00 | 0.00 | 91 | 1016.6 |
| 20260503020848 | 7 | 300 | 1.6 | 1.6 | 0.00 | 0.00 | 0.00 | 90 | 1016.6 |
| 20260503020346 | 7 | 300 | 0.0 | 1.6 | 0.00 | 0.00 | 0.00 | 90 | 1016.7 |
| 20260503015833 | 7 | 300 | 0.0 | 0.0 | 0.00 | 0.00 | 0.00 | 89 | 1016.7 |
| 20260503015329 | 7 | 300 | 0.0 | 1.6 | 0.00 | 0.00 | 0.00 | 89 | 1016.7 |
| 20260503014831 | 7 | 300 | 0.0 | 3.2 | 0.00 | 0.00 | 0.00 | 89 | 1016.7 |
| 20260503014331 | 8 | 300 | 0.0 | 3.2 | 0.00 | 0.00 | 0.00 | 89 | 1016.8 |
| 20260503013836 | 8 | 300 | 0.0 | 3.2 | 0.00 | 0.00 | 0.00 | 89 | 1016.8 |
| 20260503013332 | 8 | 300 | 0.0 | 3.2 | 0.00 | 0.00 | 0.00 | 88 | 1016.8 |
| 20260503012830 | 8 | 300 | 0.0 | 0.0 | 0.00 | 0.00 | 0.00 | 88 | 1017.0 |
| 20260503012329 | 8 | 300 | 0.0 | 0.0 | 0.00 | 0.00 | 0.00 | 88 | 1017.0 |
| 20260503012111 | 8 | 300 | 0.0 | 0.0 | 0.00 | 0.00 | 0.00 | 87 | 1017.1 |
| 20260503011328 | 8 | 300 | 0.0 | 0.0 | 0.00 | 0.00 | 0.00 | 87 | 1017.1 |
| 20260503010830 | 8 | 300 | 0.0 | 0.0 | 0.00 | 0.00 | 0.00 | 87 | 1017.1 |
| 20260503010332 | 8 | 300 | 0.0 | 3.2 | 0.00 | 0.00 | 0.00 | 86 | 1017.1 |
| 20260503005803 | 8 | 300 | 0.0 | 3.2 | 0.00 | 0.00 | 0.00 | 86 | 1017.2 |
| 20260503005304 | 8 | 300 | 0.0 | 3.2 | 0.00 | 0.00 | 0.00 | 86 | 1017.2 |
| 20260503004739 | 8 | 300 | 0.0 | 3.2 | 0.00 | 0.00 | 0.00 | 85 | 1017.2 |
| 20260503004237 | 9 | 300 | 0.0 | 3.2 | 0.00 | 0.00 | 0.00 | 85 | 1017.2 |
| 20260503004017 | 9 | 300 | 0.0 | 3.2 | 0.00 | 0.00 | 0.00 | 85 | 1017.2 |
| 20260503003231 | 9 | 300 | 0.0 | 1.6 | 0.00 | 0.00 | 0.00 | 85 | 1017.3 |
| 20260503003003 | 9 | 300 | 0.0 | 0.0 | 0.00 | 0.00 | 0.00 | 85 | 1017.3 |
| 20260503002205 | 9 | 300 | 0.0 | 0.0 | 0.00 | 0.00 | 0.00 | 85 | 1017.3 |
| 20260503001940 | 9 | 300 | 0.0 | 3.2 | 0.00 | 0.00 | 0.00 | 85 | 1017.4 |
| 20260503001435 | 9 | 300 | 0.0 | 3.2 | 0.00 | 0.00 | 0.00 | 85 | 1017.5 |
| 20260503000703 | 9 | 300 | 0.0 | 3.2 | 0.00 | 0.00 | 0.00 | 84 | 1017.5 |
| 20260503000203 | 10 | 300 | 0.0 | 3.2 | 0.00 | 0.00 | 0.00 | 84 | 1017.6 |
| 20260502235703 | 10 | 300 | 0.0 | 3.2 | 0.00 | 0.00 | 0.00 | 84 | 1017.6 |
| 20260502235159 | 10 | 300 | 0.0 | 3.2 | 0.00 | 0.00 | 0.00 | 84 | 1017.5 |
| 20260502234649 | 10 | 300 | 0.0 | 3.2 | 0.00 | 0.00 | 0.00 | 84 | 1017.7 |
| 20260502234147 | 10 | 300 | 0.0 | 3.2 | 0.00 | 0.00 | 0.00 | 84 | 1017.7 |
| 20260502233645 | 10 | 308 | 0.0 | 3.2 | 0.00 | 0.00 | 0.00 | 84 | 1017.8 |
| 20260502233141 | 10 | 308 | 0.0 | 3.2 | 0.00 | 0.00 | 0.00 | 84 | 1017.8 |
| 20260502232635 | 10 | 307 | 0.0 | 3.2 | 0.00 | 0.00 | 0.00 | 84 | 1017.8 |
| 20260502232133 | 10 | 307 | 0.0 | 3.2 | 0.00 | 0.00 | 0.00 | 84 | 1017.9 |
| 20260502231631 | 10 | 307 | 0.0 | 3.2 | 0.00 | 0.00 | 0.00 | 84 | 1018.0 |
| 20260502231129 | 10 | 307 | 0.0 | 3.2 | 0.00 | 0.00 | 0.00 | 84 | 1018.0 |
| 20260502230631 | 10 | 307 | 0.0 | 3.2 | 0.00 | 0.00 | 0.00 | 84 | 1018.1 |
| 20260502230402 | 10 | 307 | 0.0 | 1.6 | 0.00 | 0.00 | 0.00 | 84 | 1018.2 |
| 20260502225621 | 10 | 307 | 0.0 | 3.2 | 0.00 | 0.00 | 0.00 | 84 | 1018.2 |
| 20260502225118 | 10 | 307 | 0.0 | 3.2 | 0.00 | 0.00 | 0.00 | 84 | 1018.2 |
| 20260502224613 | 10 | 307 | 0.0 | 3.2 | 0.00 | 0.00 | 0.00 | 84 | 1018.3 |
| 20260502224108 | 10 | 307 | 0.0 | 3.2 | 0.00 | 0.00 | 0.00 | 84 | 1018.4 |
| 20260502223602 | 10 | 307 | 0.0 | 3.2 | 0.00 | 0.00 | 0.00 | 83 | 1018.3 |
| 20260502223103 | 10 | 307 | 0.0 | 3.2 | 0.00 | 0.00 | 0.00 | 83 | 1018.4 |
| 20260502222601 | 10 | 307 | 0.0 | 3.2 | 0.00 | 0.00 | 0.00 | 83 | 1018.4 |
| 20260502222054 | 10 | 307 | 0.0 | 3.2 | 0.00 | 0.00 | 0.00 | 83 | 1018.4 |
| 20260502221533 | 11 | 307 | 0.0 | 3.2 | 0.00 | 0.00 | 0.00 | 82 | 1018.4 |
| 20260502221029 | 11 | 307 | 0.0 | 3.2 | 0.00 | 0.00 | 0.00 | 82 | 1018.5 |
| 20260502220528 | 11 | 307 | 0.0 | 3.2 | 0.00 | 0.00 | 0.00 | 82 | 1018.5 |
| 20260502220030 | 11 | 307 | 0.0 | 3.2 | 0.00 | 0.00 | 0.00 | 82 | 1018.5 |
| 20260502215532 | 11 | 305 | 0.0 | 3.2 | 0.00 | 0.00 | 0.00 | 81 | 1018.5 |
| 20260502215029 | 11 | 303 | 0.0 | 3.2 | 0.00 | 0.00 | 0.00 | 81 | 1018.5 |
| 20260502214519 | 11 | 300 | 0.0 | 3.2 | 0.00 | 0.00 | 0.00 | 81 | 1018.5 |
| 20260502214002 | 11 | 300 | 0.0 | 3.2 | 0.00 | 0.00 | 0.00 | 81 | 1018.5 |
| 20260502213448 | 11 | 300 | 0.0 | 3.2 | 0.00 | 0.00 | 0.00 | 80 | 1018.5 |
| 20260502212950 | 11 | 300 | 0.0 | 3.2 | 0.00 | 0.00 | 0.00 | 80 | 1018.5 |
| 20260502212449 | 11 | 300 | 0.0 | 3.2 | 0.00 | 0.00 | 0.00 | 80 | 1018.5 |
| 20260502212234 | 11 | 300 | 0.0 | 3.2 | 0.00 | 0.00 | 0.00 | 79 | 1018.5 |
| 20260502211449 | 11 | 300 | 0.0 | 3.2 | 0.00 | 0.00 | 0.00 | 78 | 1018.6 |
| 20260502210943 | 12 | 300 | 0.0 | 3.2 | 0.00 | 0.00 | 0.00 | 78 | 1018.6 |
| 20260502210725 | 12 | 300 | 0.0 | 3.2 | 0.00 | 0.00 | 0.00 | 77 | 1018.7 |
| 20260502205930 | 12 | 300 | 0.0 | 3.2 | 0.00 | 0.00 | 0.00 | 76 | 1018.7 |
| 20260502205429 | 12 | 300 | 0.0 | 1.6 | 0.00 | 0.00 | 0.00 | 76 | 1018.8 |
| 20260502204929 | 12 | 300 | 0.0 | 3.2 | 0.00 | 0.00 | 0.00 | 77 | 1018.8 |
| 20260502204710 | 12 | 319 | 0.0 | 3.2 | 0.00 | 0.00 | 0.00 | 77 | 1018.7 |
| 20260502203929 | 12 | 319 | 0.0 | 1.6 | 0.00 | 0.00 | 0.00 | 76 | 1018.8 |
| 20260502203421 | 12 | 319 | 0.0 | 3.2 | 0.00 | 0.00 | 0.00 | 75 | 1018.9 |
| 20260502202902 | 12 | 319 | 0.0 | 3.2 | 0.00 | 0.00 | 0.00 | 75 | 1018.9 |
| 20260502202353 | 13 | 319 | 0.0 | 3.2 | 0.00 | 0.00 | 0.00 | 74 | 1018.9 |
| 20260502201853 | 13 | 319 | 0.0 | 3.2 | 0.00 | 0.00 | 0.00 | 74 | 1018.9 |
| 20260502201348 | 13 | 319 | 0.0 | 3.2 | 0.00 | 0.00 | 0.00 | 73 | 1019.0 |
| 20260502200841 | 13 | 319 | 0.0 | 3.2 | 0.00 | 0.00 | 0.00 | 73 | 1019.0 |
| 20260502200329 | 13 | 319 | 0.0 | 1.6 | 0.00 | 0.00 | 0.00 | 73 | 1019.0 |
| 20260502195822 | 13 | 319 | 0.0 | 3.2 | 0.00 | 0.00 | 0.00 | 72 | 1019.0 |
| 20260502195304 | 13 | 319 | 0.0 | 3.2 | 0.00 | 0.00 | 0.00 | 71 | 1018.9 |
| 20260502195044 | 14 | 319 | 0.0 | 3.2 | 0.00 | 0.00 | 0.00 | 70 | 1019.0 |
| 20260502194242 | 14 | 319 | 0.0 | 3.2 | 0.00 | 0.00 | 0.00 | 69 | 1019.0 |
| 20260502193745 | 14 | 319 | 0.0 | 3.2 | 0.00 | 0.00 | 0.00 | 68 | 1019.0 |
| 20260502193232 | 14 | 319 | 1.6 | 3.2 | 0.00 | 0.00 | 0.00 | 68 | 1019.0 |
| 20260502192723 | 15 | 319 | 1.6 | 3.2 | 0.00 | 0.00 | 0.00 | 68 | 1019.0 |
| 20260502192217 | 15 | 325 | 1.6 | 3.2 | 0.00 | 0.00 | 0.00 | 67 | 1019.0 |
| 20260502191714 | 15 | 322 | 1.6 | 3.2 | 0.00 | 0.00 | 0.00 | 69 | 1018.9 |
| 20260502191213 | 15 | 319 | 0.0 | 3.2 | 0.00 | 0.00 | 0.00 | 68 | 1018.9 |
| 20260502190715 | 15 | 275 | 0.0 | 3.2 | 0.00 | 0.00 | 0.00 | 68 | 1018.8 |
| 20260502190204 | 15 | 275 | 0.0 | 3.2 | 0.00 | 0.00 | 0.00 | 67 | 1018.9 |
| 20260502185950 | 15 | 269 | 0.0 | 3.2 | 0.00 | 0.00 | 0.00 | 67 | 1018.8 |
| 20260502185228 | 16 | 234 | 0.0 | 0.0 | 0.00 | 0.00 | 0.00 | 65 | 1018.8 |
| 20260502185221 | 15 | 235 | 0.0 | 3.2 | 0.00 | 0.00 | 0.00 | 66 | 1018.7 |
| 20260502184204 | 16 | 234 | 0.0 | 3.2 | 0.00 | 0.00 | 0.00 | 64 | 1018.7 |
| 20260502183702 | 16 | 234 | 0.0 | 3.2 | 0.00 | 0.00 | 0.00 | 63 | 1018.7 |
| 20260502183227 | 17 | 234 | 1.6 | 3.2 | 0.00 | 0.00 | 0.00 | 61 | 1018.8 |
| 20260502183219 | 16 | 234 | 0.0 | 3.2 | 0.00 | 0.00 | 0.00 | 63 | 1018.7 |
| 20260502182203 | 17 | 234 | 1.6 | 1.6 | 0.00 | 0.00 | 0.00 | 60 | 1018.7 |
| 20260502181655 | 18 | 236 | 1.6 | 3.2 | 0.00 | 0.00 | 0.00 | 58 | 1018.7 |
| 20260502181145 | 18 | 236 | 1.6 | 3.2 | 0.00 | 0.00 | 0.00 | 56 | 1018.7 |
| 20260502180642 | 18 | 217 | 1.6 | 3.2 | 0.00 | 0.00 | 0.00 | 55 | 1018.7 |
| 20260502180138 | 19 | 223 | 1.6 | 4.8 | 0.00 | 0.00 | 0.00 | 54 | 1018.8 |
| 20260502170135 | 22 | 166 | 1.6 | 8.0 | 0.00 | 0.00 | 0.00 | 45 | 1019.2 |
| 20260502170127 | 22 | 182 | 1.6 | 8.0 | 0.00 | 0.00 | 0.00 | 45 | 1019.1 |
| 20260502164104 | 23 | 175 | 3.2 | 12.9 | 0.00 | 0.00 | 0.00 | 44 | 1019.3 |
| 20260502163603 | 23 | 143 | 3.2 | 12.9 | 0.00 | 0.00 | 0.00 | 44 | 1019.4 |
| 20260502163102 | 23 | 180 | 1.6 | 8.0 | 0.00 | 0.00 | 0.00 | 44 | 1019.4 |
| 20260502162848 | 23 | 177 | 3.2 | 11.3 | 0.00 | 0.00 | 0.00 | 45 | 1019.5 |
| 20260502162104 | 23 | 183 | 4.8 | 11.3 | 0.00 | 0.00 | 0.00 | 44 | 1019.5 |
| 20260502161602 | 23 | 219 | 3.2 | 11.3 | 0.00 | 0.00 | 0.00 | 43 | 1019.5 |
| 20260502161106 | 23 | 179 | 3.2 | 11.3 | 0.00 | 0.00 | 0.00 | 43 | 1019.5 |
| 20260502160844 | 23 | 177 | 3.2 | 12.9 | 0.00 | 0.00 | 0.00 | 43 | 1019.7 |
| 20260502160118 | 23 | 161 | 4.8 | 16.1 | 0.00 | 0.00 | 0.00 | 43 | 1019.8 |
| 20260502152315 | 24 | 222 | 4.8 | 16.1 | 0.00 | 0.00 | 0.00 | 42 | 1020.2 |
| 20260502151815 | 25 | 227 | 8.0 | 17.7 | 0.00 | 0.00 | 0.00 | 42 | 1020.4 |
| 20260502151032 | 24 | 203 | 8.0 | 17.7 | 0.00 | 0.00 | 0.00 | 42 | 1020.3 |
| 20260502150535 | 24 | 240 | 4.8 | 11.3 | 0.00 | 0.00 | 0.00 | 43 | 1020.4 |
| 20260502130514 | 25 | 146 | 4.8 | 14.5 | 0.00 | 0.00 | 0.00 | 42 | 1021.7 |
| 20260502123507 | 25 | 147 | 6.4 | 17.7 | 0.00 | 0.00 | 0.00 | 44 | 1022.2 |
| 20260502123004 | 25 | 86 | 8.0 | 19.3 | 0.00 | 0.00 | 0.00 | 43 | 1022.1 |
| 20260502122501 | 25 | 116 | 4.8 | 19.3 | 0.00 | 0.00 | 0.00 | 41 | 1022.2 |
| 20260502122004 | 24 | 130 | 3.2 | 9.7 | 0.00 | 0.00 | 0.00 | 43 | 1022.2 |
| 20260502121503 | 23 | 184 | 4.8 | 14.5 | 0.00 | 0.00 | 0.00 | 43 | 1022.1 |
| 20260502121002 | 24 | 150 | 9.7 | 20.9 | 0.00 | 0.00 | 0.00 | 42 | 1022.3 |
| 20260502120502 | 25 | 92 | 9.7 | 22.5 | 0.00 | 0.00 | 0.00 | 44 | 1022.5 |
| 20260502115501 | 24 | 45 | 9.7 | 16.1 | 0.00 | 0.00 | 0.00 | 44 | 1022.5 |
| 20260502115006 | 24 | 73 | 9.7 | 17.7 | 0.00 | 0.00 | 0.00 | 43 | 1022.5 |
| 20260502114502 | 24 | 80 | 9.7 | 17.7 | 0.00 | 0.00 | 0.00 | 43 | 1022.5 |
| 20260502114001 | 25 | 84 | 6.4 | 16.1 | 0.00 | 0.00 | 0.00 | 43 | 1022.7 |
| 20260502113503 | 24 | 105 | 9.7 | 22.5 | 0.00 | 0.00 | 0.00 | 46 | 1022.6 |
| 20260502113001 | 25 | 144 | 11.3 | 22.5 | 0.00 | 0.00 | 0.00 | 44 | 1022.7 |
| 20260502112744 | 24 | 90 | 4.8 | 14.5 | 0.00 | 0.00 | 0.00 | 42 | 1022.7 |
| 20260502111944 | 25 | 161 | 4.8 | 14.5 | 0.00 | 0.00 | 0.00 | 43 | 1023.0 |
| 20260502111444 | 23 | 71 | 8.0 | 14.5 | 0.00 | 0.00 | 0.00 | 45 | 1022.8 |
| 20260502110937 | 23 | 115 | 8.0 | 14.5 | 0.00 | 0.00 | 0.00 | 44 | 1023.1 |
| 20260502110720 | 23 | 82 | 6.4 | 14.5 | 0.00 | 0.00 | 0.00 | 44 | 1023.1 |
| 20260502110206 | 23 | 78 | 4.8 | 12.9 | 0.00 | 0.00 | 0.00 | 44 | 1023.1 |
| 20260502105420 | 24 | 65 | 6.4 | 16.1 | 0.00 | 0.00 | 0.00 | 45 | 1023.2 |
| 20260502104914 | 23 | 131 | 4.8 | 19.3 | 0.00 | 0.00 | 0.00 | 45 | 1023.3 |
| 20260502104403 | 23 | 95 | 4.8 | 19.3 | 0.00 | 0.00 | 0.00 | 46 | 1023.3 |
| 20260502103902 | 22 | 199 | 6.4 | 17.7 | 0.00 | 0.00 | 0.00 | 45 | 1023.3 |
| 20260502103357 | 23 | 140 | 4.8 | 17.7 | 0.00 | 0.00 | 0.00 | 45 | 1023.4 |
| 20260502102854 | 23 | 122 | 3.2 | 11.3 | 0.00 | 0.00 | 0.00 | 45 | 1023.4 |
| 20260502102355 | 22 | 106 | 3.2 | 11.3 | 0.00 | 0.00 | 0.00 | 47 | 1023.4 |
| 20260502101852 | 22 | 138 | 4.8 | 11.3 | 0.00 | 0.00 | 0.00 | 45 | 1023.4 |
| 20260502101353 | 22 | 86 | 4.8 | 9.7 | 0.00 | 0.00 | 0.00 | 47 | 1023.5 |
| 20260502100851 | 23 | 348 | 4.8 | 12.9 | 0.00 | 0.00 | 0.00 | 46 | 1023.7 |
| 20260502100351 | 22 | 98 | 4.8 | 12.9 | 0.00 | 0.00 | 0.00 | 48 | 1023.7 |
| 20260502091352 | 21 | 55 | 4.8 | 12.9 | 0.00 | 0.00 | 0.00 | 49 | 1024.2 |
| 20260502090834 | 21 | 286 | 3.2 | 12.9 | 0.00 | 0.00 | 0.00 | 50 | 1024.3 |
| 20260502090618 | 21 | 150 | 1.6 | 9.7 | 0.00 | 0.00 | 0.00 | 50 | 1024.2 |
| 20260502090116 | 21 | 144 | 1.6 | 9.7 | 0.00 | 0.00 | 0.00 | 49 | 1024.3 |
| 20260502071247 | 17 | 90 | 0.0 | 3.2 | 0.00 | 0.00 | 0.00 | 60 | 1024.4 |
| 20260502070747 | 16 | 108 | 0.0 | 3.2 | 0.00 | 0.00 | 0.00 | 62 | 1024.4 |
| 20260502070246 | 16 | 150 | 0.0 | 3.2 | 0.00 | 0.00 | 0.00 | 67 | 1024.3 |
| 20260502065744 | 16 | 128 | 1.6 | 3.2 | 0.00 | 0.00 | 0.00 | 65 | 1024.4 |
| 20260502065239 | 14 | 235 | 1.6 | 3.2 | 0.00 | 0.00 | 0.00 | 67 | 1024.1 |
| 20260502065233 | 15 | 160 | 1.6 | 3.2 | 0.00 | 0.00 | 0.00 | 67 | 1024.2 |
| 20260502064204 | 14 | 193 | 1.6 | 3.2 | 0.00 | 0.00 | 0.00 | 69 | 1024.1 |
| 20260502063702 | 13 | 215 | 0.0 | 3.2 | 0.00 | 0.00 | 0.00 | 71 | 1024.1 |
| 20260502063203 | 14 | 178 | 0.0 | 3.2 | 0.00 | 0.00 | 0.00 | 71 | 1024.2 |
| 20260502062701 | 13 | 153 | 1.6 | 4.8 | 0.00 | 0.00 | 0.00 | 75 | 1024.1 |
| 20260502062202 | 12 | 196 | 1.6 | 4.8 | 0.00 | 0.00 | 0.00 | 74 | 1024.0 |
| 20260502061702 | 12 | 201 | 1.6 | 4.8 | 0.00 | 0.00 | 0.00 | 75 | 1024.1 |
| 20260502061145 | 12 | 211 | 1.6 | 6.4 | 0.00 | 0.00 | 0.00 | 76 | 1024.1 |
| 20260502060923 | 12 | 175 | 1.6 | 6.4 | 0.00 | 0.00 | 0.00 | 76 | 1024.1 |
| 20260502060140 | 11 | 187 | 0.0 | 3.2 | 0.00 | 0.00 | 0.00 | 78 | 1024.0 |
| 20260502055641 | 11 | 192 | 1.6 | 3.2 | 0.00 | 0.00 | 0.00 | 79 | 1024.0 |
| 20260502055146 | 11 | 121 | 0.0 | 3.2 | 0.00 | 0.00 | 0.00 | 80 | 1024.0 |
| 20260502054632 | 10 | 109 | 0.0 | 3.2 | 0.00 | 0.00 | 0.00 | 83 | 1023.9 |
| 20260502054132 | 10 | 148 | 0.0 | 3.2 | 0.00 | 0.00 | 0.00 | 83 | 1023.8 |
| 20260502053642 | 10 | 184 | 0.0 | 3.2 | 0.00 | 0.00 | 0.00 | 84 | 1023.7 |
| 20260502053130 | 9 | 144 | 0.0 | 3.2 | 0.00 | 0.00 | 0.00 | 86 | 1023.7 |
| 20260502052629 | 8 | 140 | 0.0 | 3.2 | 0.00 | 0.00 | 0.00 | 91 | 1023.5 |
| 20260502052131 | 7 | 167 | 0.0 | 3.2 | 0.00 | 0.00 | 0.00 | 95 | 1023.4 |
| 20260502051631 | 7 | 155 | 0.0 | 3.2 | 0.00 | 0.00 | 0.00 | 96 | 1023.3 |
| 20260502051412 | 6 | 177 | 0.0 | 3.2 | 0.00 | 0.00 | 0.00 | 96 | 1023.3 |
| 20260502050631 | 6 | 165 | 0.0 | 3.2 | 0.00 | 0.00 | 0.00 | 97 | 1023.2 |
| 20260502050413 | 6 | 148 | 0.0 | 3.2 | 0.00 | 0.00 | 0.00 | 97 | 1023.2 |
| 20260502045631 | 6 | 167 | 0.0 | 3.2 | 0.00 | 0.00 | 0.00 | 98 | 1023.2 |
| 20260502045407 | 6 | 179 | 0.0 | 3.2 | 0.00 | 0.00 | 0.00 | 97 | 1023.1 |
| 20260502044633 | 6 | 182 | 0.0 | 3.2 | 0.00 | 0.00 | 0.00 | 97 | 1023.0 |
| 20260502044113 | 5 | 180 | 0.0 | 3.2 | 0.00 | 0.00 | 0.00 | 97 | 1023.0 |
| 20260502043846 | 5 | 189 | 0.0 | 3.2 | 0.00 | 0.00 | 0.00 | 96 | 1023.0 |
| 20260502043101 | 5 | 192 | 0.0 | 3.2 | 0.00 | 0.00 | 0.00 | 96 | 1023.0 |
| 20260502042601 | 5 | 192 | 0.0 | 3.2 | 0.00 | 0.00 | 0.00 | 95 | 1022.8 |
| 20260502042340 | 5 | 191 | 0.0 | 3.2 | 0.00 | 0.00 | 0.00 | 95 | 1022.8 |
| 20260502041602 | 5 | 191 | 0.0 | 3.2 | 0.00 | 0.00 | 0.00 | 95 | 1023.0 |
| 20260502041103 | 5 | 202 | 0.0 | 3.2 | 0.00 | 0.00 | 0.00 | 95 | 1022.8 |
| 20260502040543 | 5 | 202 | 0.0 | 3.2 | 0.00 | 0.00 | 0.00 | 94 | 1022.7 |
| 20260502040043 | 5 | 202 | 0.0 | 3.2 | 0.00 | 0.00 | 0.00 | 94 | 1022.7 |
| 20260502035535 | 5 | 202 | 0.0 | 1.6 | 0.00 | 0.00 | 0.00 | 94 | 1022.7 |
| 20260502035033 | 5 | 202 | 0.0 | 3.2 | 0.00 | 0.00 | 0.00 | 94 | 1022.6 |
| 20260502034532 | 5 | 206 | 0.0 | 3.2 | 0.00 | 0.00 | 0.00 | 93 | 1022.7 |
| 20260502034312 | 5 | 206 | 0.0 | 1.6 | 0.00 | 0.00 | 0.00 | 93 | 1022.7 |
| 20260502033532 | 5 | 206 | 1.6 | 1.6 | 0.00 | 0.00 | 0.00 | 92 | 1022.7 |
| 20260502033019 | 6 | 206 | 0.0 | 3.2 | 0.00 | 0.00 | 0.00 | 92 | 1022.7 |
| 20260502032510 | 6 | 206 | 0.0 | 3.2 | 0.00 | 0.00 | 0.00 | 92 | 1022.7 |
| 20260502032026 | 6 | 206 | 0.0 | 3.2 | 0.00 | 0.00 | 0.00 | 91 | 1022.7 |
| 20260502032020 | 6 | 206 | 0.0 | 3.2 | 0.00 | 0.00 | 0.00 | 92 | 1022.7 |
| 20260502030945 | 6 | 189 | 0.0 | 1.6 | 0.00 | 0.00 | 0.00 | 91 | 1022.8 |
| 20260502030718 | 6 | 189 | 0.0 | 3.2 | 0.00 | 0.00 | 0.00 | 90 | 1022.8 |
| 20260502025943 | 6 | 189 | 0.0 | 3.2 | 0.00 | 0.00 | 0.00 | 90 | 1022.8 |
| 20260502025439 | 6 | 189 | 0.0 | 3.2 | 0.00 | 0.00 | 0.00 | 90 | 1023.0 |
| 20260502024934 | 6 | 206 | 0.0 | 3.2 | 0.00 | 0.00 | 0.00 | 90 | 1023.0 |
| 20260502024431 | 6 | 206 | 0.0 | 3.2 | 0.00 | 0.00 | 0.00 | 90 | 1023.0 |
| 20260502023931 | 6 | 194 | 0.0 | 0.0 | 0.00 | 0.00 | 0.00 | 89 | 1023.1 |
| 20260502023429 | 6 | 194 | 0.0 | 3.2 | 0.00 | 0.00 | 0.00 | 89 | 1023.0 |
| 20260502022934 | 6 | 194 | 0.0 | 3.2 | 0.00 | 0.00 | 0.00 | 89 | 1023.0 |
| 20260502022422 | 6 | 194 | 0.0 | 3.2 | 0.00 | 0.00 | 0.00 | 89 | 1023.1 |